FW9676 Weather Reports


time (UTC)temp
C
wind
direction
speed
KPH
gust
KPH
rain 1hr
cm
rain 24hr
cm
rain mn
cm
humidity
%
barometer
mb
20260507052512 15 270 3.2 12.9 0.00 0.00 0.00 90 1017.6
20260507052012 15 262 3.2 14.5 0.00 0.00 0.00 90 1017.6
20260507051532 15 271 6.4 14.5 0.00 0.00 0.00 89 1017.6
20260507051012 15 272 4.8 12.9 0.00 0.00 0.00 89 1017.6
20260507050514 15 263 4.8 12.9 0.00 0.00 0.00 89 1017.6
20260507050036 15 252 4.8 11.3 0.00 0.00 0.00 88 1017.5
20260507045514 15 250 1.6 12.9 0.00 0.00 0.00 88 1017.5
20260507045013 15 251 3.2 14.5 0.00 0.00 0.00 88 1017.5
20260507044536 15 262 4.8 14.5 0.00 0.00 0.00 88 1017.5
20260507044013 15 267 1.6 6.4 0.00 0.00 0.00 89 1017.4
20260507043511 15 232 1.6 6.4 0.00 0.00 0.00 89 1017.5
20260507043030 15 0 1.6 8.0 0.00 0.00 0.00 89 1017.3
20260507042514 15 271 0.0 8.0 0.00 0.00 0.00 89 1017.4
20260507042012 15 263 1.6 8.0 0.00 0.00 0.00 88 1017.3
20260507041540 16 211 1.6 14.5 0.00 0.00 0.00 89 1017.4
20260507041013 16 0 1.6 14.5 0.00 0.00 0.00 89 1017.3
20260507040513 16 264 4.8 14.5 0.00 0.00 0.00 89 1017.1
20260507040029 16 0 3.2 12.9 0.00 0.00 0.00 88 1017.2
20260507035513 16 265 1.6 12.9 0.00 0.00 0.00 88 1017.1
20260507035012 16 253 3.2 12.9 0.00 0.00 0.00 88 1017.0
20260507034528 16 209 4.8 16.1 0.00 0.00 0.00 87 1017.0
20260507034012 16 266 3.2 16.1 0.00 0.00 0.00 87 1016.9
20260507033513 16 266 6.4 16.1 0.00 0.00 0.00 87 1016.8
20260507033034 16 277 4.8 12.9 0.00 0.00 0.00 87 1016.7
20260507032513 16 258 3.2 16.1 0.00 0.00 0.00 87 1016.7
20260507032013 16 245 4.8 16.1 0.00 0.00 0.00 87 1016.7
20260507031532 16 257 4.8 19.3 0.00 0.00 0.00 87 1016.6
20260507031015 16 260 9.7 19.3 0.00 0.00 0.00 87 1016.6
20260507030514 16 275 4.8 17.7 0.00 0.00 0.00 88 1016.6
20260507030032 16 246 6.4 17.7 0.00 0.00 0.00 88 1016.6
20260507025512 16 249 6.4 19.3 0.00 0.00 0.00 87 1016.5
20260507025012 16 265 6.4 19.3 0.00 0.00 0.00 86 1016.5
20260507024532 16 257 6.4 17.7 0.00 0.00 0.00 86 1016.4
20260507024014 16 269 8.0 17.7 0.00 0.00 0.00 85 1016.4
20260507023520 16 230 6.4 16.1 0.00 0.00 0.00 84 1016.3
20260507023029 16 260 3.2 14.5 0.00 0.00 0.00 84 1016.3
20260507022516 17 244 3.2 14.5 0.00 0.00 0.00 83 1016.3
20260507022013 17 238 6.4 14.5 0.00 0.00 0.00 82 1016.3
20260507021530 17 286 3.2 19.3 0.00 0.00 0.00 83 1016.2
20260507021015 17 238 3.2 19.3 0.00 0.00 0.00 83 1016.2
20260507020513 17 273 4.8 17.7 0.00 0.00 0.00 83 1016.2
20260507020030 17 240 4.8 19.3 0.00 0.00 0.00 83 1016.2
20260507015512 17 200 8.0 19.3 0.00 0.00 0.00 83 1016.2
20260507015012 17 268 8.0 20.9 0.00 0.00 0.00 83 1016.2
20260507014540 17 232 8.0 20.9 0.00 0.00 0.00 82 1016.2
20260507014014 17 269 6.4 20.9 0.00 0.00 0.00 81 1016.1
20260507013518 17 274 8.0 22.5 0.00 0.00 0.00 81 1016.1
20260507013029 17 233 9.7 22.5 0.00 0.00 0.00 81 1016.1
20260507012512 17 262 9.7 22.5 0.00 0.00 0.00 81 1016.1
20260507012012 17 253 8.0 19.3 0.00 0.00 0.00 81 1016.1
20260507011532 18 282 8.0 19.3 0.00 0.00 0.00 81 1016.0
20260507011012 18 248 8.0 20.9 0.00 0.00 0.00 80 1016.1
20260507010515 17 250 6.4 20.9 0.00 0.00 0.00 81 1016.0
20260507010029 17 263 9.7 20.9 0.00 0.00 0.00 80 1016.0
20260507005513 18 217 8.0 27.4 0.00 0.00 0.00 81 1016.1
20260507005013 18 262 9.7 27.4 0.00 0.00 0.00 81 1016.0
20260507004536 18 254 9.7 22.5 0.00 0.00 0.00 81 1015.9
20260507004013 17 269 9.7 22.5 0.00 0.00 0.00 81 1016.0
20260507003514 17 268 11.3 22.5 0.00 0.00 0.00 81 1016.2
20260507003033 18 215 8.0 22.5 0.00 0.00 0.00 80 1016.1
20260507002513 18 234 9.7 22.5 0.00 0.00 0.00 81 1016.0
20260507002016 18 267 8.0 19.3 0.00 0.00 0.00 81 1016.1
20260507001531 18 265 8.0 32.2 0.00 0.00 0.00 80 1016.1
20260507001012 18 236 11.3 32.2 0.00 0.00 0.00 81 1016.0
20260507000512 18 263 8.0 24.1 0.00 0.00 0.00 80 1016.0
20260507000031 18 271 11.3 24.1 0.00 0.00 0.00 79 1016.1
20260506235511 18 237 8.0 20.9 0.00 0.00 0.00 79 1016.1
20260506235012 18 265 11.3 20.9 0.00 0.00 0.00 78 1016.1
20260506234537 19 231 8.0 22.5 0.00 0.00 0.00 78 1016.1
20260506234013 19 219 11.3 22.5 0.00 0.00 0.00 77 1016.1
20260506233513 19 258 6.4 24.1 0.00 0.00 0.00 77 1016.2
20260506233030 18 263 12.9 24.1 0.00 0.00 0.00 76 1016.1
20260506232512 19 211 9.7 20.9 0.00 0.00 0.00 75 1016.1
20260506232013 19 301 9.7 24.1 0.00 0.00 0.00 75 1016.2
20260506231544 19 269 9.7 24.1 0.00 0.00 0.00 75 1016.2
20260506231013 19 263 6.4 20.9 0.00 0.00 0.00 74 1016.2
20260506230512 19 218 8.0 22.5 0.00 0.00 0.00 75 1016.3
20260506230037 19 302 12.9 24.1 0.00 0.00 0.00 74 1016.3
20260506225512 19 244 8.0 25.7 0.00 0.00 0.00 75 1016.3
20260506225012 18 290 9.7 25.7 0.00 0.00 0.00 75 1016.4
20260506224530 19 230 11.3 25.7 0.00 0.00 0.00 75 1016.4
20260506224012 19 205 9.7 22.5 0.00 0.00 0.00 74 1016.5
20260506223513 19 221 8.0 22.5 0.00 0.00 0.00 74 1016.6
20260506223044 19 235 11.3 22.5 0.00 0.00 0.00 74 1016.6
20260506222514 19 225 9.7 22.5 0.00 0.00 0.00 73 1016.7
20260506222010 19 267 9.7 25.7 0.00 0.00 0.00 74 1016.7
20260506221528 19 264 9.7 25.7 0.00 0.00 0.00 74 1016.7
20260506221014 19 277 8.0 22.5 0.00 0.00 0.00 75 1016.8
20260506220514 19 244 9.7 22.5 0.00 0.00 0.00 74 1016.9
20260506220031 19 279 8.0 25.7 0.00 0.00 0.00 75 1017.0
20260506215516 19 232 11.3 25.7 0.00 0.00 0.00 75 1017.0
20260506215011 19 273 9.7 24.1 0.00 0.00 0.00 74 1017.1
20260506214532 20 207 9.7 22.5 0.00 0.00 0.00 74 1017.2
20260506214014 19 304 8.0 22.5 0.00 0.00 0.00 76 1017.2
20260506213516 19 259 11.3 24.1 0.00 0.00 0.00 74 1017.3
20260506213031 19 264 11.3 24.1 0.00 0.00 0.00 75 1017.3
20260506212512 19 239 12.9 24.1 0.00 0.00 0.00 74 1017.3
20260506212013 19 246 9.7 20.9 0.00 0.00 0.00 74 1017.4
20260506211539 19 257 8.0 20.9 0.00 0.00 0.00 75 1017.5
20260506211010 19 282 11.3 22.5 0.00 0.00 0.00 74 1017.5
20260506210512 19 239 11.3 22.5 0.00 0.00 0.00 76 1017.5
20260506210035 19 254 9.7 22.5 0.00 0.00 0.00 74 1017.5
20260506205511 20 249 8.0 22.5 0.00 0.00 0.00 74 1017.6
20260506205013 19 234 9.7 24.1 0.00 0.00 0.00 73 1017.6
20260506204531 19 290 9.7 24.1 0.00 0.00 0.00 72 1017.6
20260506204013 19 300 9.7 24.1 0.00 0.00 0.00 72 1017.6
20260506203511 19 269 11.3 19.3 0.00 0.00 0.00 70 1017.7
20260506203032 20 211 8.0 24.1 0.00 0.00 0.00 71 1017.7
20260506202513 20 292 9.7 24.1 0.00 0.00 0.00 70 1017.7
20260506202014 20 277 12.9 20.9 0.00 0.00 0.00 69 1017.6
20260506201535 20 277 9.7 20.9 0.00 0.00 0.00 68 1017.8
20260506201014 20 254 9.7 20.9 0.00 0.00 0.00 69 1017.8
20260506200512 20 231 9.7 19.3 0.00 0.00 0.00 69 1017.8
20260506200030 20 262 8.0 19.3 0.00 0.00 0.00 70 1017.8
20260506195512 20 244 9.7 22.5 0.00 0.00 0.00 70 1017.8
20260506195014 20 243 12.9 22.5 0.00 0.00 0.00 70 1017.9
20260506194531 20 246 9.7 24.1 0.00 0.00 0.00 70 1017.9
20260506194012 19 222 11.3 24.1 0.00 0.00 0.00 69 1018.0
20260506193513 20 258 8.0 22.5 0.00 0.00 0.00 70 1018.0
20260506193036 20 258 11.3 22.5 0.00 0.00 0.00 70 1018.0
20260506192512 20 259 9.7 19.3 0.00 0.00 0.00 69 1018.1
20260506192011 20 234 8.0 19.3 0.00 0.00 0.00 70 1018.1
20260506191530 20 240 9.7 20.9 0.00 0.00 0.00 70 1018.2
20260506191016 20 201 6.4 20.9 0.00 0.00 0.00 70 1018.3
20260506190516 20 232 9.7 19.3 0.00 0.00 0.00 69 1018.3
20260506190031 20 244 6.4 19.3 0.00 0.00 0.00 70 1018.2
20260506185513 20 211 9.7 19.3 0.00 0.00 0.00 70 1018.2
20260506185018 19 267 8.0 19.3 0.00 0.00 0.00 70 1018.4
20260506184531 20 229 9.7 19.3 0.00 0.00 0.00 70 1018.4
20260506184016 20 263 6.4 17.7 0.00 0.00 0.00 69 1018.4
20260506183514 20 268 4.8 17.7 0.00 0.00 0.00 70 1018.4
20260506183041 20 213 8.0 17.7 0.00 0.00 0.00 70 1018.4
20260506182512 20 263 4.8 16.1 0.00 0.00 0.00 69 1018.4
20260506182012 19 259 3.2 16.1 0.00 0.00 0.00 70 1018.4
20260506181532 19 273 6.4 16.1 0.00 0.00 0.00 71 1018.5
20260506181014 19 288 8.0 14.5 0.00 0.00 0.00 71 1018.5
20260506180514 19 261 6.4 16.1 0.00 0.00 0.00 72 1018.5
20260506180030 19 267 6.4 16.1 0.00 0.00 0.00 72 1018.5
20260506175517 18 226 8.0 16.1 0.00 0.00 0.00 73 1018.6
20260506175013 18 273 8.0 16.1 0.00 0.00 0.00 73 1018.6
20260506174531 19 274 4.8 14.5 0.00 0.00 0.00 73 1018.5
20260506174013 18 265 3.2 14.5 0.00 0.00 0.00 75 1018.5
20260506173513 18 0 4.8 14.5 0.00 0.00 0.00 75 1018.4
20260506173031 18 234 4.8 16.1 0.00 0.00 0.00 75 1018.5
20260506172513 18 245 4.8 16.1 0.00 0.00 0.00 75 1018.5
20260506172014 18 192 4.8 14.5 0.00 0.00 0.00 75 1018.5
20260506171533 18 257 6.4 14.5 0.00 0.00 0.00 73 1018.5
20260506171017 18 225 4.8 16.1 0.00 0.00 0.00 73 1018.5
20260506170515 18 258 4.8 16.1 0.00 0.00 0.00 72 1018.5
20260506170036 19 237 6.4 12.9 0.00 0.00 0.00 72 1018.4
20260506165514 19 240 3.2 11.3 0.00 0.00 0.00 71 1018.3
20260506165014 20 194 1.6 8.0 0.00 0.00 0.00 70 1018.3
20260506164531 20 0 1.6 8.0 0.00 0.00 0.00 66 1018.4
20260506164016 20 0 1.6 6.4 0.00 0.00 0.00 67 1018.4
20260506163513 19 89 1.6 6.4 0.00 0.00 0.00 68 1018.4
20260506163030 19 306 1.6 6.4 0.00 0.00 0.00 68 1018.3
20260506162513 19 38 1.6 6.4 0.00 0.00 0.00 68 1018.3
20260506162018 19 98 1.6 9.7 0.00 0.00 0.00 68 1018.4
20260506161533 18 111 0.0 11.3 0.00 0.00 0.00 69 1018.4
20260506161012 18 95 3.2 11.3 0.00 0.00 0.00 70 1018.3
20260506160510 18 53 3.2 9.7 0.00 0.00 0.00 71 1018.3
20260506160028 18 80 0.0 9.7 0.00 0.00 0.00 71 1018.3
20260506155511 18 106 3.2 9.7 0.00 0.00 0.00 73 1018.4
20260506155013 18 77 1.6 6.4 0.00 0.00 0.00 74 1018.3
20260506154534 18 61 1.6 9.7 0.00 0.00 0.00 76 1018.4
20260506154013 18 113 3.2 9.7 0.00 0.00 0.00 77 1018.4
20260506153513 18 134 3.2 6.4 0.00 0.00 0.00 77 1018.3
20260506153029 18 50 1.6 9.7 0.00 0.00 0.00 78 1018.4
20260506152513 17 113 1.6 9.7 0.00 0.00 0.00 79 1018.4
20260506152015 17 0 0.0 6.4 0.00 0.00 0.00 79 1018.4
20260506151533 17 63 1.6 6.4 0.00 0.00 0.00 80 1018.4
20260506151010 17 0 0.0 6.4 0.00 0.00 0.00 81 1018.5
20260506150514 17 65 1.6 4.8 0.00 0.00 0.00 81 1018.5
20260506150030 17 13 1.6 4.8 0.00 0.00 0.00 81 1018.5
20260506145514 16 86 0.0 4.8 0.00 0.00 0.00 82 1018.4
20260506145013 16 0 1.6 4.8 0.00 0.00 0.00 82 1018.4
20260506144536 16 0 1.6 4.8 0.00 0.00 0.00 82 1018.4
20260506144014 16 43 0.0 3.2 0.00 0.00 0.00 82 1018.4
20260506143514 16 5 0.0 3.2 0.00 0.00 0.00 83 1018.3
20260506143034 15 0 0.0 0.0 0.00 0.00 0.00 84 1018.3
20260506142511 15 0 0.0 0.0 0.00 0.00 0.00 86 1018.3
20260506142012 14 0 0.0 0.0 0.00 0.00 0.00 88 1018.3
20260506141533 13 0 0.0 0.0 0.00 0.00 0.00 90 1018.2
20260506141010 13 0 0.0 0.0 0.00 0.00 0.00 91 1018.2
20260506140511 13 0 0.0 0.0 0.00 0.00 0.00 91 1018.2
20260506140032 12 0 0.0 0.0 0.00 0.00 0.00 93 1018.2
20260506135515 12 0 0.0 0.0 0.00 0.00 0.00 94 1018.2
20260506135013 11 0 0.0 0.0 0.00 0.00 0.00 94 1018.1
20260506134528 11 0 0.0 0.0 0.00 0.00 0.00 93 1018.1
20260506134014 11 0 0.0 0.0 0.00 0.00 0.00 93 1018.1
20260506133514 11 0 0.0 0.0 0.00 0.00 0.00 93 1018.0
20260506133032 10 0 0.0 0.0 0.00 0.00 0.00 93 1018.1
20260506132514 10 0 0.0 0.0 0.00 0.00 0.00 92 1018.0
20260506132015 10 0 0.0 0.0 0.00 0.00 0.00 92 1018.0
20260506131534 10 0 0.0 0.0 0.00 0.00 0.00 92 1017.9
20260506131013 10 0 0.0 0.0 0.00 0.00 0.00 92 1017.8
20260506130517 10 0 0.0 0.0 0.00 0.00 0.00 92 1017.7
20260506130030 10 0 0.0 0.0 0.00 0.00 0.00 92 1017.7
20260506125515 10 0 0.0 0.0 0.00 0.00 0.00 92 1017.6
20260506125013 10 0 0.0 0.0 0.00 0.00 0.00 92 1017.7
20260506124530 10 0 0.0 0.0 0.00 0.00 0.00 91 1017.6
20260506124010 10 0 0.0 0.0 0.00 0.00 0.00 91 1017.5
20260506123513 10 0 0.0 0.0 0.00 0.00 0.00 91 1017.5
20260506123033 10 0 0.0 0.0 0.00 0.00 0.00 91 1017.5
20260506122513 11 0 0.0 0.0 0.00 0.00 0.00 91 1017.4
20260506122017 11 0 0.0 0.0 0.00 0.00 0.00 91 1017.4
20260506121530 11 0 0.0 0.0 0.00 0.00 0.00 91 1017.4
20260506121014 11 0 0.0 0.0 0.00 0.00 0.00 91 1017.5
20260506120513 11 0 0.0 0.0 0.00 0.00 0.00 91 1017.4
20260506120040 11 0 0.0 0.0 0.00 0.00 0.00 91 1017.4
20260506115514 11 0 0.0 0.0 0.00 0.00 0.00 91 1017.4
20260506115014 11 0 0.0 0.0 0.00 0.00 0.00 91 1017.4
20260506114532 11 0 0.0 0.0 0.00 0.00 0.00 91 1017.4
20260506114013 11 0 0.0 0.0 0.00 0.00 0.00 91 1017.4
20260506113511 11 0 0.0 0.0 0.00 0.00 0.00 91 1017.3
20260506113034 11 0 0.0 0.0 0.00 0.00 0.00 91 1017.3
20260506112512 11 0 0.0 0.0 0.00 0.00 0.00 91 1017.3
20260506112016 11 0 0.0 0.0 0.00 0.00 0.00 91 1017.3
20260506111529 11 0 0.0 0.0 0.00 0.00 0.00 90 1017.3
20260506111017 11 0 0.0 0.0 0.00 0.00 0.00 91 1017.4
20260506110513 11 0 0.0 0.0 0.00 0.00 0.00 91 1017.3
20260506110032 11 0 0.0 0.0 0.00 0.00 0.00 91 1017.3
20260506105511 11 0 0.0 0.0 0.00 0.00 0.00 91 1017.3
20260506105012 11 0 0.0 0.0 0.00 0.00 0.00 91 1017.3
20260506104532 11 0 0.0 0.0 0.00 0.00 0.00 91 1017.3
20260506104013 11 0 0.0 0.0 0.00 0.00 0.00 91 1017.4
20260506103511 11 0 0.0 0.0 0.00 0.00 0.00 90 1017.4
20260506103035 11 0 0.0 0.0 0.00 0.00 0.00 90 1017.2
20260506102514 11 0 0.0 0.0 0.00 0.00 0.00 90 1017.2
20260506102014 11 0 0.0 0.0 0.00 0.00 0.00 90 1017.3
20260506101532 11 0 0.0 0.0 0.00 0.00 0.00 90 1017.2
20260506101013 11 0 0.0 0.0 0.00 0.00 0.00 90 1017.2
20260506100513 11 0 0.0 0.0 0.00 0.00 0.00 90 1017.2
20260506100030 12 0 0.0 0.0 0.00 0.00 0.00 90 1017.2
20260506095510 12 0 0.0 0.0 0.00 0.00 0.00 90 1017.2
20260506095013 12 0 0.0 0.0 0.00 0.00 0.00 90 1017.2
20260506094533 12 0 0.0 0.0 0.00 0.00 0.00 90 1017.2
20260506094011 12 0 0.0 0.0 0.00 0.00 0.00 90 1017.2
20260506093518 12 0 0.0 0.0 0.00 0.00 0.00 90 1017.2
20260506093030 12 0 0.0 0.0 0.00 0.00 0.00 90 1017.2
20260506092514 12 0 0.0 0.0 0.00 0.00 0.00 89 1017.3
20260506092015 12 0 0.0 0.0 0.00 0.00 0.00 89 1017.3
20260506091532 12 0 0.0 0.0 0.00 0.00 0.00 89 1017.3
20260506091016 12 0 0.0 0.0 0.00 0.00 0.00 89 1017.3
20260506090513 12 0 0.0 0.0 0.00 0.00 0.00 89 1017.4
20260506090043 12 0 0.0 0.0 0.00 0.00 0.00 88 1017.4
20260506085515 12 0 0.0 0.0 0.00 0.00 0.00 89 1017.4
20260506085013 12 0 0.0 0.0 0.00 0.00 0.00 89 1017.5
20260506084530 12 0 0.0 0.0 0.00 0.00 0.00 88 1017.6
20260506084015 12 0 0.0 0.0 0.00 0.00 0.00 87 1017.6
20260506083513 12 0 0.0 0.0 0.00 0.00 0.00 87 1017.7
20260506083032 12 0 0.0 0.0 0.00 0.00 0.00 87 1017.6
20260506082514 12 0 0.0 0.0 0.00 0.00 0.00 87 1017.6
20260506082014 12 0 0.0 0.0 0.00 0.00 0.00 86 1017.6
20260506081533 12 0 0.0 0.0 0.00 0.00 0.00 86 1017.7
20260506081014 12 0 0.0 0.0 0.00 0.00 0.00 87 1017.7
20260506080514 12 0 0.0 0.0 0.00 0.00 0.00 87 1017.7
20260506073513 13 0 0.0 0.0 0.00 0.00 0.00 86 1017.8
20260506073030 13 0 0.0 0.0 0.00 0.00 0.00 86 1017.7
20260506072514 13 0 0.0 0.0 0.00 0.00 0.00 86 1017.7
20260506072013 13 0 0.0 0.0 0.00 0.00 0.00 86 1017.6
20260506071530 13 0 0.0 0.0 0.00 0.00 0.00 86 1017.5
20260506071013 13 0 0.0 0.0 0.00 0.00 0.00 85 1017.5
20260506070514 13 0 0.0 0.0 0.00 0.00 0.00 85 1017.4
20260506062511 13 0 0.0 0.0 0.00 0.00 0.00 84 1017.2
20260506062014 13 0 0.0 0.0 0.00 0.00 0.00 84 1017.2
20260506061546 13 0 0.0 0.0 0.00 0.00 0.00 84 1017.2
20260506061015 13 0 0.0 0.0 0.00 0.00 0.00 84 1017.2
20260506060514 13 0 0.0 0.0 0.00 0.00 0.00 84 1017.1